This is the latest recevied weather packets stored in our database for station/object KE8ZLU. If no packets are shown the sender has not sent any weather packets the latest 10 day(s).
| Time | Temp. | Humidity | Pressure | Rain* | Wind** | Luminosity | Snow |
|---|---|---|---|---|---|---|---|
| 1777734984 | 5° C | 52% | 1019.9 hPa | 0 mm | - | 203 W/m² | - |
| 1777734681 | 5° C | 55% | 1020 hPa | 0 mm | - | 771 W/m² | - |
| 1777734379 | 5° C | 52% | 1020 hPa | 0 mm | - | 282 W/m² | - |
| 1777734074 | 5.56° C | 51% | 1020 hPa | 0 mm | - | 156 W/m² | - |
| 1777733771 | 5.56° C | 53% | 1020 hPa | 0 mm | - | 195 W/m² | - |
| 1777733468 | 5.56° C | 51% | 1020.1 hPa | 0 mm | - | 629 W/m² | - |
| 1777733163 | 5.56° C | 49% | 1020.1 hPa | 0 mm | - | 658 W/m² | - |
| 1777732860 | 5° C | 51% | 1020 hPa | 0 mm | - | 195 W/m² | - |
| 1777732557 | 5.56° C | 54% | 1019.9 hPa | 0 mm | - | 698 W/m² | - |
| 1777732255 | 5° C | 55% | 1019.9 hPa | 0 mm | - | 636 W/m² | - |
| 1777731952 | 4.44° C | 57% | 1020 hPa | 0 mm | - | 111 W/m² | - |
| 1777731649 | 3.89° C | 59% | 1019.9 hPa | 0 mm | - | 160 W/m² | - |
| 1777731346 | 4.44° C | 59% | 1020.2 hPa | 0 mm | - | 101 W/m² | - |
| 1777731044 | 4.44° C | 59% | 1020.1 hPa | 0 mm | - | 502 W/m² | - |
| 1777730742 | 3.89° C | 59% | 1020.1 hPa | 0 mm | - | 108 W/m² | - |
| 1777730438 | 4.44° C | 58% | 1020 hPa | 0 mm | - | 110 W/m² | - |
| 1777730134 | 4.44° C | 58% | 1020.2 hPa | 0 mm | - | 425 W/m² | - |
| 1777729831 | 4.44° C | 60% | 1019.9 hPa | 0 mm | - | 409 W/m² | - |
| 1777729527 | 3.89° C | 62% | 1020.2 hPa | 0 mm | - | 393 W/m² | - |
| 1777729225 | 4.44° C | 61% | 1019.9 hPa | 0 mm | - | 379 W/m² | - |
| 1777728921 | 4.44° C | 65% | 1020.1 hPa | 0 mm | - | 364 W/m² | - |
| 1777728618 | 3.89° C | 66% | 1020.2 hPa | 0 mm | - | 347 W/m² | - |
| 1777728315 | 3.89° C | 68% | 1020.1 hPa | 0 mm | - | 335 W/m² | - |
| 1777728012 | 3.89° C | 70% | 1020.2 hPa | 0 mm | - | 318 W/m² | - |
| 1777727709 | 3.89° C | 71% | 1020.2 hPa | 0 mm | - | 305 W/m² | - |
* Rain latest hour (hover to see other rain measurements)
** Current wind speed in m/s (hover to see current wind gust speed)